GW6017 Weather Reports


time (UTC)temp
C
wind
direction
speed
KPH
gust
KPH
rain 1hr
cm
rain 24hr
cm
rain mn
cm
humidity
%
barometer
mb
20260505194018 13 90 9.7 14.5 0.00 0.00 0.00 57
20260505193517 13 90 11.3 17.7 0.00 0.00 0.00 56
20260505193009 13 90 11.3 14.5 0.00 0.00 0.00 56
20260505192517 13 90 11.3 16.1 0.00 0.00 0.00 56
20260505192038 13 90 12.9 17.7 0.00 0.00 0.00 56
20260505191517 13 90 11.3 16.1 0.00 0.00 0.00 57
20260505191017 13 90 11.3 14.5 0.00 0.00 0.00 57
20260505190517 13 90 8.0 12.9 0.00 0.00 0.00 57
20260505190006 13 90 9.7 14.5 0.00 0.00 0.00 56
20260505185517 13 90 11.3 16.1 0.00 0.00 0.00 56
20260505185038 13 90 8.0 12.9 0.00 0.00 0.00 56
20260505184519 13 90 9.7 14.5 0.00 0.00 0.00 56
20260505184017 13 90 8.0 16.1 0.00 0.00 0.00 56
20260505183517 13 90 11.3 14.5 0.00 0.00 0.00 57
20260505183005 13 90 11.3 16.1 0.00 0.00 0.00 57
20260505182517 13 90 11.3 14.5 0.00 0.00 0.00 57
20260505182058 13 90 11.3 16.1 0.00 0.00 0.00 57
20260505181517 13 68 12.9 19.3 0.00 0.00 0.00 57
20260505181017 13 68 14.5 19.3 0.00 0.00 0.00 57
20260505180517 13 90 12.9 17.7 0.00 0.00 0.00 57
20260505180008 13 90 12.9 17.7 0.00 0.00 0.00 57
20260505175517 13 90 11.3 16.1 0.00 0.00 0.00 58
20260505175017 13 90 11.3 16.1 0.00 0.00 0.00 57
20260505174517 13 90 9.7 16.1 0.00 0.00 0.00 56
20260505174038 13 113 6.4 12.9 0.00 0.00 0.00 58
20260505173517 13 135 6.4 12.9 0.00 0.00 0.00 58
20260505173011 13 135 6.4 11.3 0.00 0.00 0.00 57
20260505172517 13 135 6.4 11.3 0.00 0.00 0.00 56
20260505172017 13 135 6.4 11.3 0.00 0.00 0.00 56
20260505171517 13 135 6.4 12.9 0.00 0.00 0.00 56
20260505171017 13 135 8.0 14.5 0.00 0.00 0.00 55
20260505170517 13 135 8.0 14.5 0.00 0.00 0.00 55
20260505170007 13 135 8.0 12.9 0.00 0.00 0.00 55
20260505165519 13 135 8.0 12.9 0.00 0.00 0.00 54 1020.6
20260505165038 13 135 4.8 11.3 0.00 0.00 0.00 54 1020.6
20260505164519 13 135 4.8 11.3 0.00 0.00 0.00 53 1020.6
20260505164019 13 135 8.0 12.9 0.00 0.00 0.00 53 1020.6
20260505163539 13 135 6.4 11.3 0.00 0.00 0.00 52 1020.5
20260505163029 14 135 4.8 8.0 0.00 0.00 0.00 52 1020.4
20260505162519 14 135 6.4 9.7 0.00 0.00 0.00 52 1020.4
20260505162040 14 135 6.4 9.7 0.00 0.00 0.00 51 1020.2
20260505161519 14 135 6.4 11.3 0.00 0.00 0.00 51 1020.2
20260505161019 14 158 6.4 9.7 0.00 0.00 0.00 51 1020.1
20260505160519 14 158 4.8 11.3 0.00 0.00 0.00 51 1020.1
20260505153008 16 158 3.2 8.0 0.00 0.00 0.00 47 1020.1
20260505152518 16 135 6.4 11.3 0.00 0.00 0.00 45 1020.1
20260505152018 17 113 4.8 9.7 0.00 0.00 0.00 44 1020.1
20260505151518 17 113 9.7 14.5 0.00 0.00 0.00 43 1020.1
20260505151018 16 113 9.7 14.5 0.00 0.00 0.00 44 1020.1
20260505150519 15 113 3.2 11.3 0.00 0.00 0.00 48 1020.1
20260505140518 16 158 4.8 9.7 0.00 0.00 0.00 47 1020.2
20260505125018 17 135 4.8 11.3 0.00 0.00 0.00 44 1019.9
20260505124518 17 135 3.2 6.4 0.00 0.00 0.00 44 1019.8
20260505124018 17 135 3.2 6.4 0.00 0.00 0.00 44 1019.8
20260505123518 17 135 3.2 6.4 0.00 0.00 0.00 44 1019.8
20260505123027 17 158 3.2 6.4 0.00 0.00 0.00 44 1019.9
20260505122518 17 158 1.6 4.8 0.00 0.00 0.00 44 1019.7
20260505122017 17 158 1.6 4.8 0.00 0.00 0.00 44 1019.7
20260505121518 17 135 3.2 4.8 0.00 0.00 0.00 43 1019.7
20260505121018 17 135 4.8 6.4 0.00 0.00 0.00 43 1019.6
20260505120518 18 135 4.8 8.0 0.00 0.00 0.00 43 1019.6
20260505120007 18 135 4.8 9.7 0.00 0.00 0.00 43 1019.6
20260505115517 18 135 4.8 9.7 0.00 0.00 0.00 42 1019.5
20260505115018 18 135 4.8 8.0 0.00 0.00 0.00 42 1019.3
20260505114518 18 113 3.2 6.4 0.00 0.00 0.00 42 1019.4
20260505114018 18 135 3.2 6.4 0.00 0.00 0.00 41 1019.3
20260505113517 18 135 4.8 9.7 0.00 0.00 0.00 41 1019.2
20260505113006 18 135 4.8 11.3 0.00 0.00 0.00 41 1019.2
20260505112517 19 135 3.2 6.4 0.00 0.00 0.00 40 1019.1
20260505112019 19 135 3.2 6.4 0.00 0.00 0.00 40 1019.3
20260505111517 19 135 4.8 8.0 0.00 0.00 0.00 40 1019.2
20260505111018 20 135 3.2 6.4 0.00 0.00 0.00 39 1019.2
20260505110517 20 135 4.8 9.7 0.00 0.00 0.00 39 1019.2
20260505102017 21 113 3.2 6.4 0.00 0.00 0.00 36 1018.8
20260505101517 21 113 3.2 9.7 0.00 0.00 0.00 36 1018.9
20260505101018 21 113 3.2 6.4 0.00 0.00 0.00 35 1018.8
20260505100517 22 113 4.8 9.7 0.00 0.00 0.00 35 1018.9
20260505100006 22 113 4.8 9.7 0.00 0.00 0.00 34 1018.8
20260505095518 22 113 6.4 12.9 0.00 0.00 0.00 33 1018.8
20260505095017 21 113 4.8 11.3 0.00 0.00 0.00 34 1018.7
20260505094517 22 113 3.2 9.7 0.00 0.00 0.00 33 1018.7
20260505094038 22 90 6.4 11.3 0.00 0.00 0.00 32 1018.6
20260505093517 22 90 6.4 11.3 0.00 0.00 0.00 31 1018.6
20260505093007 22 90 8.0 11.3 0.00 0.00 0.00 31 1018.7
20260505092518 23 90 8.0 11.3 0.00 0.00 0.00 30 1018.6
20260505092017 23 90 6.4 11.3 0.00 0.00 0.00 29 1018.6
20260505091519 23 90 6.4 11.3 0.00 0.00 0.00 28 1018.6
20260505091017 23 90 6.4 12.9 0.00 0.00 0.00 28 1018.5
20260505090517 24 90 9.7 16.1 0.00 0.00 0.00 27 1018.6
20260505090007 24 90 9.7 14.5 0.00 0.00 0.00 27 1018.6
20260505085517 24 90 9.7 16.1 0.00 0.00 0.00 28 1018.6
20260505085017 24 90 9.7 14.5 0.00 0.00 0.00 28 1018.5
20260505084202 -17 0.0 0.0 0.00 0.00 0.00
20260505051018 -17 0.0 0.0 0.00 0.00 0.00
20260505050518 -17 0.0 0.0 0.00 0.00 0.00
20260505041517 22 68 17.7 25.7 0.00 0.00 0.00 38 1019.4
20260505041017 22 68 17.7 25.7 0.00 0.00 0.00 38 1019.5
20260505040517 22 68 20.9 33.8 0.00 0.00 0.00 37 1019.5
20260505040006 22 68 20.9 30.6 0.00 0.00 0.00 39 1019.6
20260505035518 21 45 20.9 32.2 0.00 0.00 0.00 40 1019.7
20260505035017 21 68 20.9 29.0 0.00 0.00 0.00 40 1019.9
20260505034517 21 68 22.5 30.6 0.00 0.00 0.00 40 1019.8
20260505034017 21 68 22.5 30.6 0.00 0.00 0.00 41 1020.0
20260505033517 21 68 20.9 29.0 0.00 0.00 0.00 42 1019.9
20260505033035 21 68 20.9 27.4 0.00 0.00 0.00 42 1019.9
20260505032517 21 45 24.1 33.8 0.00 0.00 0.00 42 1020.1
20260505032017 21 45 22.5 30.6 0.00 0.00 0.00 42 1020.2
20260505031517 21 68 20.9 37.0 0.00 0.00 0.00 42 1020.1
20260505031017 21 45 20.9 30.6 0.00 0.00 0.00 43 1020.2
20260505030539 21 45 20.9 32.2 0.00 0.00 0.00 44 1020.3
20260505030007 21 45 22.5 29.0 0.00 0.00 0.00 44 1020.4
20260505025517 20 45 22.5 27.4 0.00 0.00 0.00 44 1020.3
20260505025017 21 45 24.1 33.8 0.00 0.00 0.00 43 1020.3
20260505024517 21 45 20.9 30.6 0.00 0.00 0.00 44 1020.5
20260505024017 20 45 22.5 33.8 0.00 0.00 0.00 44 1020.5
20260505023538 20 68 22.5 32.2 0.00 0.00 0.00 44 1020.4
20260505023007 21 68 25.7 33.8 0.00 0.00 0.00 44 1020.4
20260505022517 21 68 25.7 33.8 0.00 0.00 0.00 43 1020.6
20260505022017 21 68 24.1 35.4 0.00 0.00 0.00 44 1020.6
20260505021517 20 68 22.5 32.2 0.00 0.00 0.00 45 1020.7
20260505021017 20 68 24.1 33.8 0.00 0.00 0.00 45 1020.7
20260505020517 20 68 22.5 32.2 0.00 0.00 0.00 46 1020.8
20260505020010 20 45 24.1 30.6 0.00 0.00 0.00 47 1020.8
20260505015518 19 68 24.1 32.2 0.00 0.00 0.00 48 1020.8
20260505015017 19 68 24.1 32.2 0.00 0.00 0.00 49 1020.8
20260505014517 18 68 22.5 33.8 0.00 0.00 0.00 49 1020.8
20260505014119 18 68 24.1 32.2 0.00 0.00 0.00 50 1020.8
20260505013519 18 45 20.9 29.0 0.00 0.00 0.00 52 1020.9
20260505013006 18 68 25.7 35.4 0.00 0.00 0.00 52 1021.0
20260505012519 18 68 27.4 35.4 0.00 0.00 0.00 52 1021.1
20260505012019 18 68 24.1 30.6 0.00 0.00 0.00 53 1021.1
20260505011519 17 68 24.1 32.2 0.00 0.00 0.00 53 1021.0
20260505011019 17 68 22.5 32.2 0.00 0.00 0.00 54 1021.2
20260505010519 17 68 22.5 29.0 0.00 0.00 0.00 55 1021.2
20260505010011 17 68 20.9 30.6 0.00 0.00 0.00 55 1021.2
20260505005519 16 68 24.1 32.2 0.00 0.00 0.00 56 1021.0
20260505005121 16 68 20.9 33.8 0.00 0.00 0.00 57 1021.0
20260505004519 16 68 17.7 27.4 0.00 0.00 0.00 58 1020.9
20260505004019 16 68 16.1 24.1 0.00 0.00 0.00 59 1020.9
20260505003519 15 68 16.1 22.5 0.00 0.00 0.00 59 1020.9
20260505003010 15 90 16.1 27.4 0.00 0.00 0.00 60 1021.0
20260505002519 15 90 12.9 22.5 0.00 0.00 0.00 60 1020.9
20260505002019 15 90 12.9 17.7 0.00 0.00 0.00 61 1020.8
20260505001540 15 90 12.9 17.7 0.00 0.00 0.00 62 1020.8
20260505001039 14 90 9.7 16.1 0.00 0.00 0.00 63 1020.7
20260505000519 14 90 12.9 17.7 0.00 0.00 0.00 63 1020.7
20260505000028 13 90 12.9 19.3 0.00 0.00 0.00 64 1020.5
20260504235519 13 90 11.3 17.7 0.00 0.00 0.00 67 1020.5
20260504235020 12 90 8.0 12.9 0.00 0.00 0.00 71 1020.4
20260504234600 11 135 3.2 6.4 0.00 0.00 0.00 72 1020.3
20260504234019 11 135 4.8 6.4 0.00 0.00 0.00 71 1020.3
20260504233519 11 158 4.8 6.4 0.00 0.00 0.00 69 1020.4
20260504233008 12 158 4.8 8.0 0.00 0.00 0.00 68 1020.3
20260504232519 12 135 4.8 14.5 0.00 0.00 0.00 65 1020.3
20260504232019 13 90 12.9 19.3 0.00 0.00 0.00 65 1020.2
20260504231518 12 90 12.9 17.7 0.00 0.00 0.00 66 1020.1
20260504231019 12 90 9.7 16.1 0.00 0.00 0.00 68 1020.1
20260504230542 12 90 9.7 12.9 0.00 0.00 0.00 68 1020.0
20260504230006 12 90 9.7 14.5 0.00 0.00 0.00 68 1019.9
20260504225519 11 90 9.7 12.9 0.00 0.00 0.00 68 1019.9
20260504225019 12 90 8.0 11.3 0.00 0.00 0.00 68 1019.9
20260504224539 12 90 6.4 11.3 0.00 0.00 0.00 67 1019.9
20260504224019 12 113 9.7 16.1 0.00 0.00 0.00 67 1019.8
20260504223518 12 113 9.7 14.5 0.00 0.00 0.00 68 1019.9
20260504223007 11 113 8.0 12.9 0.00 0.00 0.00 68 1019.7
20260504222519 11 90 8.0 12.9 0.00 0.00 0.00 68 1019.7
20260504222019 12 90 6.4 12.9 0.00 0.00 0.00 67 1019.7
20260504221539 12 90 9.7 12.9 0.00 0.00 0.00 67 1019.7
20260504221141 12 90 9.7 14.5 0.00 0.00 0.00 66 1019.7
20260504220539 12 113 11.3 16.1 0.00 0.00 0.00 66 1019.6
20260504220012 12 113 9.7 14.5 0.00 0.00 0.00 67 1019.7
20260504215518 12 113 8.0 16.1 0.00 0.00 0.00 67 1019.7
20260504215019 12 90 8.0 14.5 0.00 0.00 0.00 67 1019.7
20260504214539 12 90 8.0 12.9 0.00 0.00 0.00 67 1019.6
20260504214019 12 90 6.4 11.3 0.00 0.00 0.00 67 1019.7
20260504213519 12 90 8.0 12.9 0.00 0.00 0.00 67 1019.6
20260504213007 12 90 9.7 16.1 0.00 0.00 0.00 67 1019.5
20260504212519 12 90 11.3 16.1 0.00 0.00 0.00 67 1019.4
20260504212018 12 90 9.7 14.5 0.00 0.00 0.00 68 1019.6
20260504211539 11 113 8.0 12.9 0.00 0.00 0.00 69 1019.5
20260504211019 11 90 3.2 9.7 0.00 0.00 0.00 72 1019.5
20260504210518 11 90 1.6 3.2 0.00 0.00 0.00 71 1019.6
20260504210006 11 90 1.6 4.8 0.00 0.00 0.00 71 1019.5
20260504205518 11 113 1.6 6.4 0.00 0.00 0.00 70 1019.4
20260504205019 11 0.0 3.2 0.00 0.00 0.00 70 1019.4
20260504204518 11 113 1.6 6.4 0.00 0.00 0.00 69 1019.3
20260504204019 11 113 1.6 3.2 0.00 0.00 0.00 69 1019.3
20260504203519 12 113 1.6 4.8 0.00 0.00 0.00 68 1019.3
20260504203006 12 113 3.2 8.0 0.00 0.00 0.00 67 1019.2
20260504202019 12 113 4.8 11.3 0.00 0.00 0.00 67 1019.3
20260504201518 12 113 6.4 11.3 0.00 0.00 0.00 67 1019.2
20260504201039 12 113 8.0 11.3 0.00 0.00 0.00 67 1019.1
20260504200518 12 90 8.0 12.9 0.00 0.00 0.00 67 1019.1
20260504200006 12 90 8.0 12.9 0.00 0.00 0.00 67 1019.1
20260504195539 12 90 8.0 12.9 0.00 0.00 0.00 67 1019.0
20260504195019 12 90 8.0 12.9 0.00 0.00 0.00 67 1018.9
20260504194519 12 90 8.0 12.9 0.00 0.00 0.00 67 1019.0